, FL

(GMT )
Crestview

Weather History for KEGI - September, 2013

Change the Weather History Date:

Wednesday, September 4, 2013

  Actual Average Record
Temperature  
Mean Temperature 78 °F -  
Max Temperature 90 °F - - ()
Min Temperature 68 °F - - ()
Cooling Degree Days 14    
Growing Degree Days 28 (Base 50)    
Moisture  
Dew Point 74 °F    
Average Humidity 89    
Maximum Humidity 100    
Minimum Humidity 62    
Precipitation  
Precipitation 0.69 in - - ()
Sea Level Pressure  
Sea Level Pressure 30.03 in    
Wind  
Wind Speed 3 mph (SSE)    
Max Wind Speed 14 mph    
Max Gust Speed -    
Visibility 7 miles    
Events Fog , Rain , Thunderstorm    
T = Trace of Precipitation, MM = Missing Value Source: NWS Daily Summary

Daily Weather History Graph

Daily Weather History Graph

Search for Another Location

Airport or City:

Trip Planner

Search our weather history database for the weather conditions in past years. The results will help you decide how hot, cold, wet, or windy it might be!

Date:

Astronomy

Sep. 04, 2013 Rise Set
Actual Time 6:24 AM CDT 7:05 PM CDT
Civil Twilight 5:59 AM CDT 7:29 PM CDT
Nautical Twilight 5:31 AM CDT 7:58 PM CDT
Astronomical Twilight 5:01 AM CDT 8:27 PM CDT
Moon 5:35 AM CDT (9/4) 6:26 PM CDT (9/4)
Length of Visible Light 13h 29m
Length of Day
12h 40m
Waning Crescent, 1% of the Moon is Illuminated
Sep 4
Waning Crescent
Sep 5
New
Sep 12
First Quarter
Sep 19
Full
Sep 26
Last Quarter

Hourly Weather History & Observations

Time (CDT) Temp. Heat Index Dew Point Humidity Pressure Visibility Wind Dir Wind Speed Gust Speed Precip Events Conditions
12:01 AM 71.6 °F - 71.6 °F 100% 30.00 in 1.8 mi NNW 2.3 mph - N/A   Clear
12:06 AM 71.6 °F - 71.6 °F 100% 30.00 in 0.8 mi Calm Calm - N/A   Clear
12:11 AM 71.6 °F - 71.6 °F 100% 30.00 in 0.5 mi Calm Calm - N/A Fog Fog
12:21 AM 71.6 °F - 71.6 °F 100% 30.00 in 1.0 mi Calm Calm - N/A   Clear
12:26 AM 71.6 °F - 71.6 °F 100% 29.99 in 2.0 mi Calm Calm - N/A   Clear
12:31 AM 71.6 °F - 71.6 °F 100% 29.99 in 4.0 mi Calm Calm - N/A   Clear
12:41 AM 71.6 °F - 69.8 °F 94% 29.99 in 2.5 mi NNE 1.2 mph - N/A   Clear
12:51 AM 71.6 °F - 69.8 °F 94% 29.99 in 5.0 mi Calm Calm - N/A   Clear
12:58 AM 70.9 °F - 70.5 °F 99% 30.00 in 7.0 mi NE 1.2 mph - N/A   Clear
1:58 AM 71.4 °F - 71.4 °F 100% 30.00 in 8.0 mi Calm Calm - N/A   Clear
2:58 AM 70.2 °F - 69.8 °F 99% 29.99 in 8.0 mi NNE 1.2 mph - N/A   Clear
3:58 AM 69.3 °F - 68.9 °F 99% 29.99 in 9.0 mi Calm Calm - N/A   Clear
4:58 AM 69.4 °F - 69.3 °F 99% 30.00 in 6.0 mi Calm Calm - N/A   Clear
5:58 AM 69.3 °F - 69.3 °F 100% 30.01 in 7.0 mi Calm Calm - N/A   Clear
6:58 AM 68.9 °F - 68.5 °F 99% 30.03 in 7.0 mi North 1.2 mph - N/A   Clear
7:58 AM 73.4 °F - 73.4 °F 100% 30.06 in 10.0 mi North 1.2 mph - N/A   Clear
8:55 AM 78.3 °F - 77.5 °F 98% 30.07 in 10.0 mi Calm Calm - N/A   Scattered Clouds
9:55 AM 82.4 °F 91.2 °F 77.4 °F 85% 30.07 in 10.0 mi NW 2.3 mph - N/A   Scattered Clouds
10:55 AM 84.7 °F 94.8 °F 76.8 °F 77% 30.09 in 10.0 mi NW 5.8 mph - N/A   Scattered Clouds
11:59 AM 86.5 °F 95.0 °F 74.3 °F 67% 30.07 in 10.0 mi NW 4.6 mph - N/A   Scattered Clouds
12:55 PM 89.1 °F 99.6 °F 75.4 °F 64% 30.05 in 10.0 mi SW 4.6 mph - N/A   Scattered Clouds
1:37 PM 87.8 °F 97.6 °F 75.2 °F 66% 30.06 in 10.0 mi SSW 9.2 mph - N/A Rain Light Rain
1:55 PM 87.4 °F 96.7 °F 74.7 °F 66% 30.05 in 10.0 mi South 8.1 mph - 0.00 in   Mostly Cloudy
2:28 PM 89.6 °F 99.8 °F 75.2 °F 62% 30.04 in 10.0 mi South 5.8 mph - N/A Thunderstorm Thunderstorm
2:55 PM 87.6 °F 97.6 °F 75.6 °F 67% 30.04 in 10.0 mi SW 6.9 mph - N/A   Mostly Cloudy
3:08 PM 86.0 °F 96.9 °F 77.0 °F 74% 30.02 in 10.0 mi SW 4.6 mph - N/A Rain Light Rain Showers
3:26 PM 82.4 °F 92.4 °F 78.8 °F 89% 30.02 in 3.0 mi Variable 5.8 mph - N/A Rain Light Rain Showers
3:29 PM 82.4 °F 90.9 °F 77.0 °F 84% 30.03 in 2.0 mi ESE 8.1 mph - N/A Rain Heavy Rain
3:34 PM 78.8 °F - 73.4 °F 83% 30.03 in 0.8 mi ESE 13.8 mph - N/A Rain Heavy Rain
3:44 PM 77.0 °F - 73.4 °F 89% 30.03 in 1.0 mi SE 8.1 mph - N/A Rain , Thunderstorm Light Thunderstorms and Rain
3:47 PM 77.0 °F - 73.4 °F 89% 30.02 in 2.0 mi SE 8.1 mph - N/A Rain , Thunderstorm Light Thunderstorms and Rain
3:55 PM 77.4 °F - 74.3 °F 90% 30.03 in 10.0 mi ENE 8.1 mph - 0.68 in Rain Light Rain
4:13 PM 77.0 °F - 75.2 °F 94% 30.01 in 10.0 mi SSE 4.6 mph - N/A Rain Light Rain
4:29 PM 78.8 °F - 77.0 °F 94% 30.01 in 10.0 mi SSE 4.6 mph - N/A   Mostly Cloudy
4:55 PM 82.9 °F 92.8 °F 78.1 °F 85% 30.01 in 10.0 mi SSE 6.9 mph - 0.01 in   Mostly Cloudy
5:55 PM 83.3 °F 92.1 °F 76.5 °F 80% 30.03 in 10.0 mi South 8.1 mph - N/A   Mostly Cloudy
6:55 PM 80.6 °F 86.9 °F 76.8 °F 88% 30.04 in 10.0 mi SSE 5.8 mph - N/A   Scattered Clouds
7:55 PM 79.3 °F - 76.3 °F 90% 30.06 in 10.0 mi West 3.5 mph - N/A   Scattered Clouds
8:55 PM 77.0 °F - 76.8 °F 99% 30.08 in 10.0 mi ESE 1.2 mph - N/A   Scattered Clouds
9:55 PM 77.5 °F - 77.0 °F 98% 30.09 in 10.0 mi South 3.5 mph - N/A   Scattered Clouds
10:55 PM 76.3 °F - 76.1 °F 99% 30.09 in 10.0 mi NNW 1.2 mph - N/A   Scattered Clouds
11:55 PM 75.2 °F - 74.8 °F 99% 30.08 in 10.0 mi NNW 2.3 mph - N/A   Clear